DW4604 Weather Reports


time (UTC)temp
C
wind
direction
speed
KPH
gust
KPH
rain 1hr
cm
rain 24hr
cm
rain mn
cm
humidity
%
barometer
mb
20260506162953 21 0 0.0 0.0 0.00 0.00 0.00 55 1004.5
20260506162452 22 0 0.0 0.0 0.00 0.00 0.00 55 1004.6
20260506161953 22 0 0.0 0.0 0.00 0.00 0.00 52 1004.6
20260506161452 23 0 0.0 0.0 0.00 0.00 0.00 50 1004.5
20260506160952 23 0 0.0 0.0 0.00 0.00 0.00 51 1004.5
20260506160453 23 0 0.0 0.0 0.00 0.00 0.00 49 1004.4
20260506155953 23 0 0.0 0.0 0.00 0.00 0.00 50 1004.5
20260506155452 23 0 0.0 0.0 0.00 0.00 0.00 47 1004.5
20260506154952 24 0 0.0 0.0 0.00 0.00 0.00 48 1004.6
20260506154453 24 0 0.0 0.0 0.00 0.00 0.00 47 1004.5
20260506153952 24 0 0.0 0.0 0.00 0.00 0.00 47 1004.6
20260506152452 24 0 0.0 0.0 0.00 0.00 0.00 45 1004.7
20260506151453 25 0 0.0 0.0 0.00 0.00 0.00 45 1004.7
20260506150954 25 0 0.0 0.0 0.00 0.00 0.00 45 1004.7
20260506145952 25 0 0.0 0.0 0.00 0.00 0.00 47 1004.8
20260506145453 24 0 0.0 0.0 0.00 0.00 0.00 45 1004.9
20260506144952 25 0 0.0 0.0 0.00 0.00 0.00 44 1004.9
20260506144453 25 0 0.0 0.0 0.00 0.00 0.00 44 1005.0
20260506143954 26 0 0.0 0.0 0.00 0.00 0.00 43 1005.0
20260506143453 26 0 0.0 0.0 0.00 0.00 0.00 44 1005.0
20260506142953 25 0 0.0 0.0 0.00 0.00 0.00 45 1005.1
20260506142453 25 0 0.0 0.0 0.00 0.00 0.00 45 1005.1
20260506141952 25 0 0.0 0.0 0.00 0.00 0.00 44 1005.1
20260506141452 25 0 0.0 0.0 0.00 0.00 0.00 43 1005.2
20260506140452 26 0 0.0 0.0 0.00 0.00 0.00 43 1005.1
20260506135952 26 0 0.0 0.0 0.00 0.00 0.00 44 1005.2
20260506134453 26 0 0.0 0.0 0.00 0.00 0.00 45 1005.2
20260506133953 26 0 0.0 0.0 0.00 0.00 0.00 43 1005.3
20260506133453 25 0 0.0 0.0 0.00 0.00 0.00 43 1005.4
20260506132953 25 0 0.0 0.0 0.00 0.00 0.00 42 1005.4
20260506132453 26 0 0.0 0.0 0.00 0.00 0.00 45 1005.4
20260506131953 25 0 0.0 0.0 0.00 0.00 0.00 47 1005.4
20260506131454 26 0 0.0 0.0 0.00 0.00 0.00 46 1005.4
20260506130953 26 0 0.0 0.0 0.00 0.00 0.00 45 1005.4
20260506130454 26 0 0.0 0.0 0.00 0.00 0.00 45 1005.5
20260506125453 25 0 0.0 0.0 0.00 0.00 0.00 48 1005.5
20260506124453 25 0 0.0 0.0 0.00 0.00 0.00 48 1005.7
20260506123953 24 0 0.0 0.0 0.00 0.00 0.00 51 1005.7
20260506123453 24 0 0.0 0.0 0.00 0.00 0.00 48 1005.7
20260506122954 25 0 0.0 0.0 0.00 0.00 0.00 46 1005.7
20260506122454 25 0 0.0 0.0 0.00 0.00 0.00 49 1005.7
20260506121953 25 0 0.0 0.0 0.00 0.00 0.00 49 1005.7
20260506121454 25 0 0.0 0.0 0.00 0.00 0.00 48 1005.6
20260506120953 25 0 0.0 0.0 0.00 0.00 0.00 50 1005.7
20260506120454 25 0 0.0 0.0 0.00 0.00 0.00 48 1005.8
20260506115953 25 0 0.0 0.0 0.00 0.00 0.00 47 1005.6
20260506115454 25 0 0.0 0.0 0.00 0.00 0.00 48 1005.7
20260506114953 25 0 0.0 0.0 0.00 0.00 0.00 47 1005.8
20260506114454 25 0 0.0 0.0 0.00 0.00 0.00 50 1005.6
20260506113953 25 0 0.0 0.0 0.00 0.00 0.00 49 1005.7
20260506113454 25 0 0.0 0.0 0.00 0.00 0.00 48 1005.7
20260506112953 25 0 0.0 0.0 0.00 0.00 0.00 50 1005.7
20260506112454 25 0 0.0 0.0 0.00 0.00 0.00 50 1005.7
20260506111954 25 0 0.0 0.0 0.00 0.00 0.00 51 1005.6
20260506111453 25 0 0.0 0.0 0.00 0.00 0.00 52 1005.6
20260506110953 24 0 0.0 0.0 0.00 0.00 0.00 50 1005.7
20260506110453 24 0 0.0 0.0 0.00 0.00 0.00 52 1005.8
20260506105953 24 0 0.0 0.0 0.00 0.00 0.00 50 1005.9
20260506105453 24 0 0.0 0.0 0.00 0.00 0.00 50 1005.8
20260506104955 23 0 0.0 0.0 0.00 0.00 0.00 50 1005.9
20260506104454 24 0 0.0 0.0 0.00 0.00 0.00 49 1005.8
20260506103954 24 0 0.0 0.0 0.00 0.00 0.00 51 1005.8
20260506102954 24 0 0.0 0.0 0.00 0.00 0.00 50 1005.8
20260506102453 24 0 0.0 0.0 0.00 0.00 0.00 55 1005.9
20260506101953 23 0 0.0 0.0 0.00 0.00 0.00 54 1005.8
20260506100953 22 0 0.0 0.0 0.00 0.00 0.00 57 1005.9
20260506100453 22 0 0.0 0.0 0.00 0.00 0.00 58 1005.9
20260506095454 23 0 0.0 0.0 0.00 0.00 0.00 56 1005.9
20260506094454 24 0 0.0 0.0 0.00 0.00 0.00 54 1005.9
20260506093953 23 0 0.0 0.0 0.00 0.00 0.00 54 1005.7
20260506093453 23 0 0.0 0.0 0.00 0.00 0.00 54 1005.7
20260506092954 23 0 0.0 0.0 0.00 0.00 0.00 55 1005.7
20260506092454 23 0 0.0 0.0 0.00 0.00 0.00 55 1005.7
20260506091954 23 0 0.0 0.0 0.00 0.00 0.00 54 1005.7
20260506091454 22 0 0.0 0.0 0.00 0.00 0.00 56 1005.6
20260506090954 23 0 0.0 0.0 0.00 0.00 0.00 55 1005.6
20260506090455 23 0 0.0 0.0 0.00 0.00 0.00 58 1005.6
20260506085954 22 0 0.0 0.0 0.00 0.00 0.00 57 1005.6
20260506085455 22 0 0.0 0.0 0.00 0.00 0.00 57 1005.6
20260506084953 22 0 0.0 0.0 0.00 0.00 0.00 58 1005.7
20260506083954 22 0 0.0 0.0 0.00 0.00 0.00 59 1005.6
20260506082954 22 0 0.0 0.0 0.00 0.00 0.00 59 1005.5
20260506082455 21 0 0.0 0.0 0.00 0.00 0.00 62 1005.5
20260506081453 21 0 0.0 0.0 0.00 0.00 0.00 61 1005.6
20260506080955 21 0 0.0 0.0 0.00 0.00 0.00 62 1005.7
20260506080454 21 0 0.0 0.0 0.00 0.00 0.00 63 1005.6
20260506073454 20 0 0.0 0.0 0.00 0.00 0.00 63 1005.4
20260506072455 19 0 0.0 0.0 0.00 0.00 0.00 64 1005.4
20260506071954 19 0 0.0 0.0 0.00 0.00 0.00 64 1005.4
20260506071454 19 0 0.0 0.0 0.00 0.00 0.00 63 1005.3
20260506070955 19 0 0.0 0.0 0.00 0.00 0.00 65 1005.4
20260506070454 18 0 0.0 0.0 0.00 0.00 0.00 65 1005.4
20260506062454 18 0 0.0 0.0 0.00 0.00 0.00 66 1005.2
20260506061956 18 0 0.0 0.0 0.00 0.00 0.00 66 1005.2
20260506061455 17 0 0.0 0.0 0.00 0.00 0.00 67 1005.1
20260506050955 15 0 0.0 0.0 0.00 0.00 0.00 72 1004.8
20260506050454 15 0 0.0 0.0 0.00 0.00 0.00 73 1004.8
20260506044454 14 0 0.0 0.0 0.00 0.00 0.00 74 1004.9
20260506043954 14 0 0.0 0.0 0.00 0.00 0.00 75 1004.8
20260506042954 13 0 0.0 0.0 0.00 0.00 0.00 76 1004.9
20260506042455 13 0 0.0 0.0 0.00 0.00 0.00 76 1004.9
20260506041954 13 0 0.0 0.0 0.00 0.00 0.00 76 1004.8
20260506041454 13 0 0.0 0.0 0.00 0.00 0.00 76 1004.8
20260506040454 13 0 0.0 0.0 0.00 0.00 0.00 75 1004.8
20260506035955 13 0 0.0 0.0 0.00 0.00 0.00 75 1004.7
20260506035455 13 0 0.0 0.0 0.00 0.00 0.00 74 1004.8
20260506034955 13 0 0.0 0.0 0.00 0.00 0.00 74 1004.8
20260506033954 14 0 0.0 0.0 0.00 0.00 0.00 72 1004.7
20260506033455 14 0 0.0 0.0 0.00 0.00 0.00 71 1004.7
20260506032455 15 0 0.0 0.0 0.00 0.00 0.00 71 1004.7
20260506031955 15 0 0.0 0.0 0.00 0.00 0.00 70 1004.7
20260506031454 15 0 0.0 0.0 0.00 0.00 0.00 70 1004.7
20260506030955 15 0 0.0 0.0 0.00 0.00 0.00 70 1004.7
20260506030456 15 0 0.0 0.0 0.00 0.00 0.00 69 1004.8
20260506025955 15 0 0.0 0.0 0.00 0.00 0.00 68 1004.6
20260506024955 15 0 0.0 0.0 0.00 0.00 0.00 68 1004.6
20260506024455 15 0 0.0 0.0 0.00 0.00 0.00 68 1004.7
20260506023455 15 0 0.0 0.0 0.00 0.00 0.00 68 1004.8
20260506022955 15 0 0.0 0.0 0.00 0.00 0.00 68 1004.7
20260506021956 15 0 0.0 0.0 0.00 0.00 0.00 68 1004.7
20260506021455 15 0 0.0 0.0 0.00 0.00 0.00 68 1004.7
20260506020455 15 0 0.0 0.0 0.00 0.00 0.00 67 1004.7
20260506015956 15 0 0.0 0.0 0.00 0.00 0.00 66 1004.7
20260506014955 15 0 0.0 0.0 0.00 0.00 0.00 66 1004.5
20260506014455 15 0 0.0 0.0 0.00 0.00 0.00 65 1004.5
20260506013954 15 0 0.0 0.0 0.00 0.00 0.00 65 1004.5
20260506013455 15 0 0.0 0.0 0.00 0.00 0.00 64 1004.5
20260506012955 16 0 0.0 0.0 0.00 0.00 0.00 64 1004.5
20260506011955 16 0 0.0 0.0 0.00 0.00 0.00 64 1004.5
20260506011455 15 0 0.0 0.0 0.00 0.00 0.00 64 1004.5
20260506010955 15 0 0.0 0.0 0.00 0.00 0.00 64 1004.6
20260506010456 15 0 0.0 0.0 0.00 0.00 0.00 66 1004.7
20260506005455 14 0 0.0 0.0 0.00 0.00 0.00 68 1004.7
20260506004955 13 0 0.0 0.0 0.00 0.00 0.00 69 1004.7
20260506004455 13 0 0.0 0.0 0.00 0.00 0.00 69 1004.7
20260506003955 13 0 0.0 0.0 0.00 0.00 0.00 69 1004.7
20260506003455 13 0 0.0 0.0 0.00 0.00 0.00 68 1004.7
20260506002955 14 0 0.0 0.0 0.00 0.00 0.00 68 1004.7
20260506002456 14 0 0.0 0.0 0.00 0.00 0.00 67 1004.7
20260506001955 14 0 0.0 0.0 0.00 0.00 0.00 67 1004.7
20260506000955 14 0 0.0 0.0 0.00 0.00 0.00 67 1004.7
20260505235956 13 0 0.0 0.0 0.00 0.00 0.00 71 1004.9
20260505234955 13 0 0.0 0.0 0.00 0.00 0.00 70 1004.9
20260505234455 13 0 0.0 0.0 0.00 0.00 0.00 68 1005.0
20260505233956 13 0 0.0 0.0 0.00 0.00 0.00 68 1005.0
20260505233455 14 0 0.0 0.0 0.00 0.00 0.00 68 1005.0
20260505232956 14 0 0.0 0.0 0.00 0.00 0.00 67 1005.1
20260505232456 14 0 0.0 0.0 0.00 0.00 0.00 67 1005.0
20260505231956 15 0 0.0 0.0 0.00 0.00 0.00 66 1005.1
20260505231456 15 0 0.0 0.0 0.00 0.00 0.00 65 1005.1
20260505230956 15 0 0.0 0.0 0.00 0.00 0.00 64 1005.2
20260505230457 15 0 0.0 0.0 0.00 0.00 0.00 63 1005.2
20260505225955 16 0 0.0 0.0 0.00 0.00 0.00 62 1005.2
20260505225456 16 0 0.0 0.0 0.00 0.00 0.00 61 1005.2
20260505224955 16 0 0.0 0.0 0.00 0.00 0.00 60 1005.2
20260505224455 17 0 0.0 0.0 0.00 0.00 0.00 59 1005.3
20260505223455 17 0 0.0 0.0 0.00 0.00 0.00 59 1005.3
20260505222956 16 0 0.0 0.0 0.00 0.00 0.00 59 1005.3
20260505222457 17 0 0.0 0.0 0.00 0.00 0.00 59 1005.4
20260505221957 17 0 0.0 0.0 0.00 0.00 0.00 57 1005.4
20260505220957 17 0 0.0 0.0 0.00 0.00 0.00 57 1005.4
20260505215456 17 0 0.0 0.0 0.00 0.00 0.00 56 1005.5
20260505214956 17 0 0.0 0.0 0.00 0.00 0.00 56 1005.7
20260505214456 17 0 0.0 0.0 0.00 0.00 0.00 56 1005.6
20260505213456 17 0 0.0 0.0 0.00 0.00 0.00 56 1005.7
20260505212956 16 0 0.0 0.0 0.00 0.00 0.00 57 1005.7
20260505211455 16 0 0.0 0.0 0.00 0.00 0.00 57 1005.6
20260505210456 16 0 0.0 0.0 0.00 0.00 0.00 56 1005.7
20260505205956 16 0 0.0 0.0 0.00 0.00 0.00 57 1005.6
20260505205457 16 0 0.0 0.0 0.00 0.00 0.00 57 1005.6
20260505204956 17 0 0.0 0.0 0.00 0.00 0.00 57 1005.5
20260505204456 17 0 0.0 0.0 0.00 0.00 0.00 56 1005.6
20260505203957 17 0 0.0 0.0 0.00 0.00 0.00 54 1005.6
20260505203456 18 0 0.0 0.0 0.00 0.00 0.00 54 1005.6
20260505202956 18 0 0.0 0.0 0.00 0.00 0.00 53 1005.7
20260505201456 17 0 0.0 0.0 0.00 0.00 0.00 53 1005.6
20260505200958 17 0 0.0 0.0 0.00 0.00 0.00 53 1005.6
20260505200457 17 0 0.0 0.0 0.00 0.00 0.00 52 1005.6
20260505195956 18 0 0.0 0.0 0.00 0.00 0.00 51 1005.7
20260505195456 18 0 0.0 0.0 0.00 0.00 0.00 52 1005.7
20260505194957 18 0 0.0 0.0 0.00 0.00 0.00 51 1005.6
20260505194456 18 0 0.0 0.0 0.00 0.00 0.00 51 1005.7
20260505193456 19 0 0.0 0.0 0.00 0.00 0.00 49 1005.6
20260505192956 19 0 0.0 0.0 0.00 0.00 0.00 48 1005.6
20260505192457 20 0 0.0 0.0 0.00 0.00 0.00 47 1005.6
20260505191957 20 0 0.0 0.0 0.00 0.00 0.00 47 1005.6
20260505190957 20 0 0.0 0.0 0.00 0.00 0.00 45 1005.6
20260505190457 20 0 0.0 0.0 0.00 0.00 0.00 45 1005.5
20260505185457 21 0 0.0 0.0 0.00 0.00 0.00 44 1005.6
20260505184957 21 0 0.0 0.0 0.00 0.00 0.00 42 1005.6
20260505184457 21 0 0.0 0.0 0.00 0.00 0.00 42 1005.5
20260505183457 21 0 0.0 0.0 0.00 0.00 0.00 42 1005.4
20260505182957 21 0 0.0 0.0 0.00 0.00 0.00 42 1005.5
20260505182457 21 0 0.0 0.0 0.00 0.00 0.00 40 1005.4
20260505181956 21 0 0.0 0.0 0.00 0.00 0.00 39 1005.4
20260505181458 21 0 0.0 0.0 0.00 0.00 0.00 39 1005.4
20260505180957 22 0 0.0 0.0 0.00 0.00 0.00 38 1005.3
20260505180456 22 0 0.0 0.0 0.00 0.00 0.00 38 1005.3
20260505180000 22 0 0.0 0.0 0.00 0.00 0.00 37 1005.3
20260505175456 22 0 0.0 0.0 0.00 0.00 0.00 36 1005.4
20260505174956 22 0 0.0 0.0 0.00 0.00 0.00 35 1005.2
20260505174457 22 0 0.0 0.0 0.00 0.00 0.00 34 1005.3
20260505173957 22 0 0.0 0.0 0.00 0.00 0.00 33 1005.2
20260505172457 22 0 0.0 0.0 0.00 0.00 0.00 33 1005.1
20260505171957 23 0 0.0 0.0 0.00 0.00 0.00 30 1005.1
20260505171456 23 0 0.0 0.0 0.00 0.00 0.00 31 1005.0
20260505170958 23 0 0.0 0.0 0.00 0.00 0.00 31 1004.9
20260505170457 23 0 0.0 0.0 0.00 0.00 0.00 31 1005.0
20260505165457 24 0 0.0 0.0 0.00 0.00 0.00 30 1005.0
20260505164957 24 0 0.0 0.0 0.00 0.00 0.00 31 1005.1
20260505164457 24 0 0.0 0.0 0.00 0.00 0.00 30 1005.1
20260505163957 24 0 0.0 0.0 0.00 0.00 0.00 29 1005.2